SCP
0 0 0 0 0 0 0 0 0 0 0 0 0 0 0 0 0 -0 -0 0 0 0 0 0 0 0 0 0 0 0 0 0 0 0 0 0 0 0
0 0 0 0 0 0 0 0 0 0 0 0 0 0 0 0 0 0 0 0 0 0 0 0 0 0 0 0 0 0 0 0 0 0 0 0 0 0
0 0 0 0 0 0 0 0 0 0 0 0 0 0 0 0 0 0 0 0 0 0 0 0 0 0 0 0 0 0 0 0 0 0 0 0 0 0
0 0 0 0 0 0 0 0 0 0 0 0 0 0 0 0 0 0 0 -0 -0 0 0 0 0 0 0 0 0 0 0 0 0 0 0 0 0 0
0 0 0 0 0 0 0 0 0 0 0 0 0 0 0 0 0 0 0 0 -0 -0 0 0 0 0 0 0 0 0 0 0 0 0 0 0 0 0
0 0 -0 -0 0 0 0 0 0 0 0 0 0 0 0 0 0 0 0 0 -0 -0 -0 0 0 0 0 0 0 0 0 0 0 0 0 0 0 0
0 0 -0 0 -0 -0 0 0 0 0 0 0 0 0 0 0 0 0 0 0 -0 -0 -0 -0 0 0 0 0 0 0 0 0 0 0 0 0 0 0
0 0 0 -0 0 -0 -0 -0 -0 0 0 0 0 0 0 0 0 0 0 0 0 0 -0 -0 0 0 0 0 0 0 0 0 0 0 0 0 0 0
0 0 0 0 0 -0 -0 0 -0 0 0 -0 0 0 0 0 0 0 0 0 0 0 0 0 0 0 0 0 0 0 0 0 0 0 0 0 0 0
0 0 -0 -0 -0 -0 0 0 -0 -0 -0 -0 -0 -0 -0 -0 -0 0 0 0 0 0 0 0 0 0 0 0 0 0 0 0 0 0 0 0 0 0
0 0 0 -0 -0 -0 0 0 0 -0 -0 -0 0 0 0 0 0 0 0 0 0 0 0 0 0 0 0 0 0 0 0 0 0 0 0 0 0 0
0 0 -0 -0 -0 -0 -0 -0 -0 -0 -0 -0 0 -0 -0 0 -0 0 0 0 0 0 0 0 0 0 0 0 0 0 0 0 0 0 0 0 0 0
0 0 -0 -0 -0 -0 -0 -0 -0 -0 -0 0 0 0 0 0 0 0 0 0 0 0 0 0 0 0 0 0 0 0 0 0 0 0 0 0 0 0
-0 -0 0 -0 -0 -0 -0 -0 -0 -0 0 0 0 0 0 0 0 0 0 0 0 0 0 0 0 0 0 0 0 0 0 0 0 0 0 0 0 0
-0 0 -0 -0 -0 -0 -0 -0 -0 -0 -0 -0 -0 0 0 0 0 0 0 0 0 0 0 0 0 0 0 0 0 0 0 0 0 0 0 0 0 0
0 0 0 0 0 0 -0 0 -0 0 0 0 0 -0 -0 0 0 0 0 0 0 0 0 0 0 0 0 0 0 0 0 0 0 0 0 0 0 0
0 0 0 0 0 0 0 -0 -0 -0 -0 -0 -0 0 -0 -0 0 0 0 0 0 0 0 0 0 0 0 -0 0 0 -0 0 0 0 0 0 0 0
0 0 0 0 0 0 0 0 0 0 0 0 -0 -0 -0 -0 -0 0 -0 0 0 0 0 0 0 0 0 0 0 0 0 0 0 0 0 0 0 0
0 0 0 0 0 0 0 0 0 0 0 0 0 0 0 0 0 0 0 -0 -0 -0 -0 -0 -0 -0 0 0 0 0 0 0 0 0 0 0 0 0
0 0 0 0 0 0 0 0 0 0 0 0 0 0 0 0 0 0 0 0 0 0 -0 -0 -0 -0 0 -0 -0 -0 0 0 0 0 0 0 0 0
0 0 0 0 0 0 0 0 0 0 0 0 0 0 0 0 0 0 0 0 0 0 0 0 0 0 0 -0 -0 -0 -0 -0 0 0 0 0 0 0
0 0 0 0 0 0 0 0 0 0 0 0 0 0 0 0 0 0 0 0 0 0 0 0 0 0 0 0 -0 -0 -0 -0 0 -0 -0 0 0 0
0 0 0 0 0 0 0 0 0 0 0 0 0 0 0 0 0 0 0 0 0 0 0 0 0 0 0 0 0 0 0 0 0 0 0 -0 -0 -0
Wind_Speed_500mb
50 45 42 52 64 59 57 55 43 40 49 44 41 39 33 33 31 34 42 43 45 47 53 57 60 61 64 68 70 80 85 77 82 76 72 85 86 68
42 49 53 43 43 51 45 45 50 46 54 48 44 39 35 36 28 33 39 44 46 51 54 58 64 69 69 70 74 77 83 91 90 87 85 83 95 70
36 35 47 44 37 39 54 54 46 54 58 53 43 38 36 39 42 46 49 52 56 59 60 64 67 71 76 76 77 80 81 83 87 94 93 89 85 90
29 32 29 37 45 52 45 40 50 50 47 53 52 50 51 50 53 52 48 52 60 62 64 66 69 72 74 78 81 83 83 83 85 86 93 94 88 83
19 24 25 26 30 31 45 54 46 44 45 46 51 52 52 54 55 49 47 51 60 56 57 64 70 72 75 75 82 86 86 87 86 84 86 91 90 85
21 22 23 29 28 28 42 44 53 59 65 56 52 55 63 56 55 57 53 55 59 62 67 57 69 65 58 64 72 89 90 88 86 86 84 86 87 85
20 23 20 23 28 28 30 33 39 42 44 58 63 62 54 49 52 52 53 54 62 70 57 56 56 58 64 61 58 71 88 88 87 84 84 84 84 80
5 10 19 26 26 31 31 38 34 37 37 38 49 57 60 52 56 53 53 55 60 54 48 40 22 9 9 12 42 39 65 75 79 87 88 75 85 95
2 7 9 10 14 18 24 14 18 44 44 46 45 46 47 47 48 50 53 55 53 50 39 22 16 11 13 22 28 34 42 49 58 65 73 87 103 100
17 11 17 18 16 19 20 22 23 22 29 30 40 46 51 51 56 52 45 46 41 32 29 14 24 29 27 36 28 39 46 45 63 83 87 96 92 99
64 58 47 39 20 6 19 17 17 19 19 17 27 43 49 45 43 46 47 44 33 32 32 34 31 35 32 30 42 44 28 33 33 49 54 51 53 56
60 54 56 51 44 33 26 25 30 20 7 9 12 12 13 16 20 22 29 40 46 32 26 30 27 17 12 15 24 36 36 29 25 23 42 48 37 41
65 62 52 49 48 45 39 33 27 18 19 19 20 19 18 15 14 21 34 44 40 18 19 17 9 5 10 17 18 18 23 23 20 22 21 19 23 30
54 46 46 50 50 39 37 32 30 31 38 40 41 41 38 34 29 22 17 13 10 10 7 10 10 9 20 22 13 11 8 8 9 6 6 11 13 17
46 44 47 52 49 49 46 45 40 39 42 44 45 43 41 38 35 32 29 28 25 22 23 22 19 14 11 10 16 11 7 5 2 4 2 0 5 10
48 51 49 50 51 48 46 44 40 37 35 35 33 30 28 26 26 24 21 19 16 18 12 9 5 6 7 10 10 9 9 7 9 9 11 9 9 12
42 47 51 52 52 49 46 42 39 35 35 33 32 30 27 23 23 18 16 14 16 16 11 8 4 3 8 9 7 10 12 11 11 12 11 12 12 13
55 57 54 51 49 46 45 43 41 37 34 29 26 24 22 21 18 15 13 12 12 11 8 4 2 7 9 13 9 5 4 5 7 8 9 10 14 12
60 57 55 53 50 45 43 42 41 38 34 33 32 30 26 24 22 20 17 14 12 10 9 9 7 1 5 8 9 9 15 12 11 10 9 9 10 10
57 53 51 49 47 45 43 41 37 35 33 31 28 26 24 23 22 21 20 19 13 14 14 15 16 11 8 6 5 5 7 9 14 20 17 9 8 9
52 50 48 47 46 44 43 39 37 35 33 34 32 30 29 27 26 25 25 25 23 20 18 17 13 11 6 2 4 8 5 5 8 15 21 14 9 13
49 47 46 45 44 43 42 40 37 35 34 32 32 31 32 32 30 27 22 21 20 16 15 18 13 17 22 21 18 13 12 12 7 6 12 20 22 23
49 47 45 43 43 42 40 39 39 37 36 34 33 31 32 34 35 36 35 31 25 24 24 26 24 22 24 22 22 20 18 20 21 20 16 15 13 15
Wind_Direction_500mb
234 235 243 243 242 242 243 243 239 246 251 246 253 263 269 272 280 279 281 280 284 290 286 284 285 282 278 272 262 253 250 254 247 245 244 235 258 244
240 239 238 237 236 229 229 231 233 236 251 257 259 265 270 267 269 284 287 287 293 294 291 287 285 284 280 275 267 258 253 250 248 244 243 239 246 251
236 237 234 223 214 224 232 237 236 236 246 250 255 259 260 267 272 279 285 289 292 293 289 285 285 283 280 275 269 262 256 253 249 245 244 240 241 244
248 240 246 249 241 224 220 220 231 235 238 244 249 251 261 266 273 274 275 283 288 289 291 288 284 282 279 273 268 262 256 253 250 243 243 239 243 243
255 243 255 257 233 237 237 232 229 238 237 243 249 256 261 270 274 267 274 281 293 291 294 293 287 282 277 273 266 259 253 250 247 241 241 238 240 240
256 254 259 251 249 252 240 239 244 250 245 247 250 257 266 263 268 271 273 282 291 294 302 294 295 285 279 280 266 254 249 245 241 240 238 237 237 238
243 255 254 249 254 246 246 240 240 245 245 247 252 254 260 252 257 269 273 284 292 296 297 298 295 285 280 282 280 247 238 240 237 237 235 235 233 234
237 253 265 248 247 253 253 254 245 241 241 249 247 249 248 260 267 266 274 280 288 292 301 307 272 169 278 264 262 259 235 233 235 232 234 225 223 217
19 281 282 268 252 247 262 305 199 227 238 252 254 253 255 261 271 270 275 276 277 281 273 255 239 225 171 88 118 199 184 203 214 216 208 208 210 212
29 299 269 264 281 248 250 259 269 262 252 243 254 259 257 259 263 266 264 271 257 248 220 140 137 125 111 91 78 111 136 119 163 183 181 186 188 200
49 49 48 47 26 345 248 251 256 260 262 282 264 267 265 263 254 253 249 242 196 168 152 139 122 114 108 87 105 100 92 125 124 142 148 149 160 164
61 59 49 54 57 63 83 100 97 84 75 100 114 125 153 144 223 219 220 202 172 150 158 142 139 126 85 82 89 95 114 106 99 162 160 168 178 185
57 57 52 53 59 61 64 70 76 88 88 84 81 76 77 85 122 163 177 174 164 141 167 171 177 158 126 111 123 134 106 114 119 115 115 154 177 180
48 48 51 58 57 59 69 76 87 98 99 97 95 93 92 93 98 112 124 151 141 121 170 241 238 234 165 136 118 117 101 94 90 115 130 133 142 165
55 57 62 63 67 69 67 73 75 80 84 83 80 79 81 84 87 92 95 100 104 96 94 94 96 106 120 132 144 147 133 111 63 293 288 71 182 194
62 64 64 66 67 69 69 68 69 69 68 70 70 72 75 78 75 75 79 92 109 110 103 104 129 204 244 185 195 217 220 240 249 233 251 246 239 231
65 66 63 61 61 61 61 61 62 61 61 64 67 68 69 71 74 74 71 88 99 98 96 85 87 169 178 195 228 236 241 250 248 248 251 254 266 258
62 59 58 57 57 56 55 54 53 52 50 50 52 54 58 60 58 63 66 67 76 78 70 56 49 78 87 77 68 63 36 341 317 304 294 276 285 289
60 57 56 54 53 54 54 53 50 48 50 53 52 51 51 56 60 63 61 59 54 47 33 18 8 333 218 122 85 80 53 38 14 339 298 304 306 301
55 54 52 50 49 49 50 50 54 54 51 49 49 52 55 56 54 53 49 41 43 58 69 69 57 58 67 94 92 53 80 58 31 16 0 336 347 344
49 48 47 46 45 44 43 42 42 45 43 44 47 47 46 44 44 49 55 59 60 55 56 46 36 18 11 69 58 48 76 74 25 24 6 12 16 4
45 44 43 42 42 42 41 40 39 40 42 42 42 40 37 35 34 29 24 23 29 40 42 42 42 67 78 74 72 66 54 31 22 28 39 27 18 4
42 41 41 41 41 41 41 38 37 37 39 40 40 39 40 43 41 44 49 49 48 55 69 75 72 68 69 72 64 54 45 47 55 60 60 64 48 25
Wind_Speed_850mb
50 45 42 52 64 59 57 55 43 40 49 44 41 39 33 33 31 34 42 43 45 47 53 57 60 61 64 68 70 80 85 77 82 76 72 85 86 68
42 49 53 43 43 51 45 45 50 46 54 48 44 39 35 36 28 33 39 44 46 51 54 58 64 69 69 70 74 77 83 91 90 87 85 83 95 70
36 35 47 44 37 39 54 54 46 54 58 53 43 38 36 39 42 46 49 52 56 59 60 64 67 71 76 76 77 80 81 83 87 94 93 89 85 90
29 32 29 37 45 52 45 40 50 50 47 53 52 50 51 50 53 52 48 52 60 62 64 66 69 72 74 78 81 83 83 83 85 86 93 94 88 83
19 24 25 26 30 31 45 54 46 44 45 46 51 52 52 54 55 49 47 51 60 56 57 64 70 72 75 75 82 86 86 87 86 84 86 91 90 85
21 22 23 29 28 28 42 44 53 59 65 56 52 55 63 56 55 57 53 55 59 62 67 57 69 65 58 64 72 89 90 88 86 86 84 86 87 85
20 23 20 23 28 28 30 33 39 42 44 58 63 62 54 49 52 52 53 54 62 70 57 56 56 58 64 61 58 71 88 88 87 84 84 84 84 80
5 10 19 26 26 31 31 38 34 37 37 38 49 57 60 52 56 53 53 55 60 54 48 40 22 9 9 12 42 39 65 75 79 87 88 75 85 95
2 7 9 10 14 18 24 14 18 44 44 46 45 46 47 47 48 50 53 55 53 50 39 22 16 11 13 22 28 34 42 49 58 65 73 87 103 100
17 11 17 18 16 19 20 22 23 22 29 30 40 46 51 51 56 52 45 46 41 32 29 14 24 29 27 36 28 39 46 45 63 83 87 96 92 99
64 58 47 39 20 6 19 17 17 19 19 17 27 43 49 45 43 46 47 44 33 32 32 34 31 35 32 30 42 44 28 33 33 49 54 51 53 56
60 54 56 51 44 33 26 25 30 20 7 9 12 12 13 16 20 22 29 40 46 32 26 30 27 17 12 15 24 36 36 29 25 23 42 48 37 41
65 62 52 49 48 45 39 33 27 18 19 19 20 19 18 15 14 21 34 44 40 18 19 17 9 5 10 17 18 18 23 23 20 22 21 19 23 30
54 46 46 50 50 39 37 32 30 31 38 40 41 41 38 34 29 22 17 13 10 10 7 10 10 9 20 22 13 11 8 8 9 6 6 11 13 17
46 44 47 52 49 49 46 45 40 39 42 44 45 43 41 38 35 32 29 28 25 22 23 22 19 14 11 10 16 11 7 5 2 4 2 0 5 10
48 51 49 50 51 48 46 44 40 37 35 35 33 30 28 26 26 24 21 19 16 18 12 9 5 6 7 10 10 9 9 7 9 9 11 9 9 12
42 47 51 52 52 49 46 42 39 35 35 33 32 30 27 23 23 18 16 14 16 16 11 8 4 3 8 9 7 10 12 11 11 12 11 12 12 13
55 57 54 51 49 46 45 43 41 37 34 29 26 24 22 21 18 15 13 12 12 11 8 4 2 7 9 13 9 5 4 5 7 8 9 10 14 12
60 57 55 53 50 45 43 42 41 38 34 33 32 30 26 24 22 20 17 14 12 10 9 9 7 1 5 8 9 9 15 12 11 10 9 9 10 10
57 53 51 49 47 45 43 41 37 35 33 31 28 26 24 23 22 21 20 19 13 14 14 15 16 11 8 6 5 5 7 9 14 20 17 9 8 9
52 50 48 47 46 44 43 39 37 35 33 34 32 30 29 27 26 25 25 25 23 20 18 17 13 11 6 2 4 8 5 5 8 15 21 14 9 13
49 47 46 45 44 43 42 40 37 35 34 32 32 31 32 32 30 27 22 21 20 16 15 18 13 17 22 21 18 13 12 12 7 6 12 20 22 23
49 47 45 43 43 42 40 39 39 37 36 34 33 31 32 34 35 36 35 31 25 24 24 26 24 22 24 22 22 20 18 20 21 20 16 15 13 15
Wind_Direction_850mb
234 235 243 243 242 242 243 243 239 246 251 246 253 263 269 272 280 279 281 280 284 290 286 284 285 282 278 272 262 253 250 254 247 245 244 235 258 244
240 239 238 237 236 229 229 231 233 236 251 257 259 265 270 267 269 284 287 287 293 294 291 287 285 284 280 275 267 258 253 250 248 244 243 239 246 251
236 237 234 223 214 224 232 237 236 236 246 250 255 259 260 267 272 279 285 289 292 293 289 285 285 283 280 275 269 262 256 253 249 245 244 240 241 244
248 240 246 249 241 224 220 220 231 235 238 244 249 251 261 266 273 274 275 283 288 289 291 288 284 282 279 273 268 262 256 253 250 243 243 239 243 243
255 243 255 257 233 237 237 232 229 238 237 243 249 256 261 270 274 267 274 281 293 291 294 293 287 282 277 273 266 259 253 250 247 241 241 238 240 240
256 254 259 251 249 252 240 239 244 250 245 247 250 257 266 263 268 271 273 282 291 294 302 294 295 285 279 280 266 254 249 245 241 240 238 237 237 238
243 255 254 249 254 246 246 240 240 245 245 247 252 254 260 252 257 269 273 284 292 296 297 298 295 285 280 282 280 247 238 240 237 237 235 235 233 234
237 253 265 248 247 253 253 254 245 241 241 249 247 249 248 260 267 266 274 280 288 292 301 307 272 169 278 264 262 259 235 233 235 232 234 225 223 217
19 281 282 268 252 247 262 305 199 227 238 252 254 253 255 261 271 270 275 276 277 281 273 255 239 225 171 88 118 199 184 203 214 216 208 208 210 212
29 299 269 264 281 248 250 259 269 262 252 243 254 259 257 259 263 266 264 271 257 248 220 140 137 125 111 91 78 111 136 119 163 183 181 186 188 200
49 49 48 47 26 345 248 251 256 260 262 282 264 267 265 263 254 253 249 242 196 168 152 139 122 114 108 87 105 100 92 125 124 142 148 149 160 164
61 59 49 54 57 63 83 100 97 84 75 100 114 125 153 144 223 219 220 202 172 150 158 142 139 126 85 82 89 95 114 106 99 162 160 168 178 185
57 57 52 53 59 61 64 70 76 88 88 84 81 76 77 85 122 163 177 174 164 141 167 171 177 158 126 111 123 134 106 114 119 115 115 154 177 180
48 48 51 58 57 59 69 76 87 98 99 97 95 93 92 93 98 112 124 151 141 121 170 241 238 234 165 136 118 117 101 94 90 115 130 133 142 165
55 57 62 63 67 69 67 73 75 80 84 83 80 79 81 84 87 92 95 100 104 96 94 94 96 106 120 132 144 147 133 111 63 293 288 71 182 194
62 64 64 66 67 69 69 68 69 69 68 70 70 72 75 78 75 75 79 92 109 110 103 104 129 204 244 185 195 217 220 240 249 233 251 246 239 231
65 66 63 61 61 61 61 61 62 61 61 64 67 68 69 71 74 74 71 88 99 98 96 85 87 169 178 195 228 236 241 250 248 248 251 254 266 258
62 59 58 57 57 56 55 54 53 52 50 50 52 54 58 60 58 63 66 67 76 78 70 56 49 78 87 77 68 63 36 341 317 304 294 276 285 289
60 57 56 54 53 54 54 53 50 48 50 53 52 51 51 56 60 63 61 59 54 47 33 18 8 333 218 122 85 80 53 38 14 339 298 304 306 301
55 54 52 50 49 49 50 50 54 54 51 49 49 52 55 56 54 53 49 41 43 58 69 69 57 58 67 94 92 53 80 58 31 16 0 336 347 344
49 48 47 46 45 44 43 42 42 45 43 44 47 47 46 44 44 49 55 59 60 55 56 46 36 18 11 69 58 48 76 74 25 24 6 12 16 4
45 44 43 42 42 42 41 40 39 40 42 42 42 40 37 35 34 29 24 23 29 40 42 42 42 67 78 74 72 66 54 31 22 28 39 27 18 4
42 41 41 41 41 41 41 38 37 37 39 40 40 39 40 43 41 44 49 49 48 55 69 75 72 68 69 72 64 54 45 47 55 60 60 64 48 25